Retour au catalogue

COSMOS 1275 DEB

ActifPO
NORAD 12780·DEBRIS·🇷🇺 Russia

Lancé Jun 4, 1981 depuis Plesetsk Cosmodrome

Loading…

Prochains Passages (prochaines 24 heures)

TLE

FraisSource: Space-Track

Époque: Sep 14, 2026, 07:57 UTC

1 12780U 81053DW  26257.33159880  .00000472  00000-0  35912-3 0  9990
2 12780  82.9501   6.6011 0021343 243.7320 136.9336 13.91674944277525

Suivez COSMOS 1275 DEB en temps réel avec AllMySat

Download on the App Store